SCOUT X-1 R/B, 82

Orbit data source: Space-Track

SCOUT X-1 R/B, 82 is space debris in LEO originally from a launch on Thu, 16 Feb 1961 UTC launched from the Wallops Island (WLPIS). Debris objects in space refer to the collection of defunct objects orbiting the Earth. Examples of debris include non-operational satellites, rocket bodies, and fragments generated from explosions, collisions, or faulty payload assembly.

Loading next visibility...
Identifier
82, 1961-004B
Orbit
LEO
Last TLE update
10 hours ago
Origin
Manufacturer
ABL
Mission
Spacecraft
Bus & Motor
ALTAIR, Unknown motor
Mass
53 kg wet, 24 kg dry
Launch date (UTC)
1961-02-16 (64 years ago)
Launch vehicle
Unknown
Launch site
Wallops Island (WLPIS)
Object type
Payload
Rocket body
Debris
Shape & HBR
Cyl, 1.5 m
Radar Cross Section
0.687 m², Medium (>0.1 m² and < 1m²)

Expand to show TLE details & history

TLE from 10 hours ago
0 SCOUT X-1 R/B
1    82U 61004B   25191.66208211  .00000133  00000-0  15413-3 0  9999
2    82  38.8528 188.1794 1167063  12.9196 349.8883 12.27666814 34830
Epoch: 2025-07-10T15:53Z
TLE epoch observation values (Epoch: 2025-07-10T15:53:23.894Z)
Latitude
-0.00002°
Longitude
21.00467°
Altitude
650.873 km
Speed
7.952 km/s
True Right ascension
12h 32m 43s
True Declination
0° 00' 00"
Sunlit
Object was in daylight at epoch
Visualization orbit readout
Latitude
37.39535°
Longitude
128.63237°
Altitude
1,455.831 km
Speed
7.186 km/s
Apparent Right ascension
22h 31m 18s
Apparent Declination
5° 16' 59"
Sunlit
Object is in daylight
Visualization observer readout
Local Sidereal Time
14:24:42
Azimuth
64.416° ENE
Elevation
-19.976°
Doppler factor
1
Orbital elements
Apogee altitude
2,488.271 km
Perigee altitude
635.025 km
Semi-major axis
7,939.785 km
Eccentricity
0.11671
Inclination
38.8528°
RAAN
188.1794°
Arg. of periapsis
12.9196°
True anomaly
Unknown
Mean anomaly
349.8883°
Eccentric anomaly
Unknown
Mean motion
3.06782 °/min
Orbital period
117.35 mins
BSTAR
0.00015413
Loading maneuver chart data...
Loading SW <> Apogee altitude chart data...
Loading historical data...
Loading historical data...
Loading historical data...
Loading historical data...
Loading historical data...
Loading historical data...
Loading historical data...

SCOUT X-1 R/B Visibility forecast

Observer location: undefined°, undefined°

Span
Click to sort rows by Start time (UTC) header in descending order
Start Az.
Max El. time (UTC)
Max El. Az.
Max El.
End time (UTC)
End Az.
11 mins2025-07-11 03:49:12.320Z227.497° WSW2025-07-11 03:53:12.320Z166.427° S37.313°2025-07-11 04:00:12.320Z82.804° E
14 mins2025-07-11 05:52:12.320Z264.209° W2025-07-11 05:57:12.320Z197.49° SSW44.791°2025-07-11 06:06:12.320Z91.902° ESE
17 mins2025-07-11 07:56:12.320Z273.735° WNW2025-07-11 08:02:12.320Z187.707° SSW42.728°2025-07-11 08:13:12.320Z118.325° SE
18 mins2025-07-11 10:00:12.320Z265.134° W2025-07-11 10:07:12.320Z208.227° SW30.598°2025-07-11 10:18:12.320Z153.063° SSE
6 mins2025-07-11 12:09:12.320Z235.593° WSW2025-07-11 12:11:12.320Z226.123° WSW11.733°2025-07-11 12:15:12.320Z208.519° SW
|